Skip Page Navigation
NASA JPL Caltech
NASA Logo - Jet Propulsion Laboratory + View the NASA Portal
+ Center for Near-Earth Object Studies
JPL Home Earth Solar System Stars & Galaxies Technology
JPL Solar System Dynamics
BODIES ORBITS EPHEMERIDES TOOLS PHYSICAL DATA DISCOVERY FAQ SITE MAP
JPL Small-Body Database Browser
Search: [ help ]  
172351 (2002 VG126)
Classification: Main-belt Asteroid          SPK-ID: 2172351
Ephemeris | Orbit Diagram | Orbital Elements | Mission Design | Physical Parameters | Discovery Circumstances ]

[ show orbit diagram ]
Orbital Elements at Epoch 2459000.5 (2020-May-31.0) TDB
Reference: JPL 13 (heliocentric ecliptic J2000)
 Element Value Uncertainty (1-sigma)   Units 
e .1807027034105844 6.5075e-08  
a 2.735543503529424 2.3597e-08 au
q 2.241223397144395 1.85e-07 au
i 7.231245750654105 6.3708e-06 deg
node 279.577337310896 5.3967e-05 deg
peri 87.31457284705405 5.6983e-05 deg
M 351.5726006840037 2.055e-05 deg
tp 2459039.186098868328
(2020-Jul-08.68609887)
9.4606e-05 TDB
period 1652.585224739825
4.52
2.1383e-05
5.854e-08
d
yr
n .2178405050527283 2.8187e-09 deg/d
Q 3.229863609914452 2.7861e-08 au
  Orbit Determination Parameters
   # obs. used (total)      524  
   data-arc span      5709 days (15.63 yr)  
   first obs. used      2002-09-06  
   last obs. used      2018-04-24  
   planetary ephem.      DE431  
   SB-pert. ephem.      SB431-N16  
   condition code      0  
   norm. resid. RMS      .47947  
   source      ORB  
   producer      Otto Matic  
   solution date      2018-May-07 05:52:46  

Additional Information
 Earth MOID = 1.25408 au 
 Jupiter MOID = 2.31391 au 
 T_jup = 3.317 
[ show covariance matrix ]

Ephemeris | Orbit Diagram | Orbital Elements | Mission Design | Physical Parameters | Discovery Circumstances ]

Physical Parameter Table
Parameter Symbol Value Units Sigma Reference Notes
absolute magnitude H 15.5   n/a MPO294205  

172351 (2002 VG126)          Discovered 2002-Nov-12 by LINEAR at Socorro
Reference: 20071224/Numbers.arcLast Updated: 2007-12-22
Ephemeris | Orbit Diagram | Orbital Elements | Mission Design | Physical Parameters | Discovery Circumstances ]
ABOUT SSD CREDITS/AWARDS PRIVACY/COPYRIGHT GLOSSARY LINKS
FirstGov 2020-Jul-05 14:47 UT
(server date/time)  
NASA Home Page
Site Manager:   Ryan S. Park
Webmaster  Alan B. Chamberlin